Regional Weather Roundup
Issued by NWS Goodland, KS

Home | Current Version | Previous Version | Text Only | Print | Product List | Glossary On
Versions: 1 2 3 4 5 6 7 8 9 10 11 12 13 14 15 16 17 18 19 20 21 22 23 24 25 26 27 28 29 30 31 32 33 34 35 36 37 38 39 40 41 42 43 44 45 46 47 48 49 50
000
ASUS43 KGLD 192208
RWRGLD

GOODLAND FORECAST AREA HOURLY WEATHER ROUNDUP
NATIONAL WEATHER SERVICE GOODLAND KS
400 PM MDT TUE SEP 19 2017

...OFFICIAL OBSERVATIONS...

CITY           SKY/WX    TMP DP  RH WIND       PRES   REMARKS
GOODLAND KS    CLOUDY    90  18   7 SW26G37   29.54F
HILL CITY KS   CLOUDY    97  36  12 S21G32    29.50F
IMPERIAL NEB   CLOUDY    90  29  11 W8        29.50F
MCCOOK NEB     CLOUDY    94  37  13 S17G26    29.46F
AKRON CO       CLOUDY    88  16   7 W8        29.58F
BURLINGTON CO  CLOUDY    87  21   9 SW25G37   29.59F
LIMON CO       CLOUDY    82  16   8 S22G31    29.63F
$$

...UNOFFICIAL OBSERVATIONS...

CITY           SKY/WX    TMP DP  RH WIND       PRES   REMARKS
LENORA KS        N/A     96  32  10 MISG        N/A
NORTON KS      SUNNY     95  23   7 S16G28    29.47F
SHARON SPRINGS   N/A     91  29  11 S15         N/A
TRENTON NEB      N/A     95  32  11 S14         N/A
KIT CARSON CO    N/A     85  27  12 MISG        N/A
YUMA CO        FAIR      82   9   6 S9        29.55S
$$




USA.gov is the U.S. government's official web portal to all federal, state and local government web resources and services.